• In Netherlands
  • List of Countries
  • For 7 days
  • Water Temperature
  • Satellite Maps
  • Weather Map
  • Weather Widgets
  • user-avatar
    Login

    Hourly Weather Mingachevir

    Today, 20 February, Monday

    Time Temperature Precipitation Wind Pressure Humidity
    00:00 -1°C° 0 mm 2 mps 763 mmHg 72%
    01:00 +1°C° 0 mm 1 mps 763 mmHg 73%
    02:00 +1°C° 0 mm 1 mps 763 mmHg 74%
    03:00 0°C° 0 mm 1 mps 763 mmHg 74%
    04:00 0°C° 0 mm 1 mps 763 mmHg 73%
    05:00 0°C° 0 mm 1 mps 763 mmHg 73%
    06:00 0°C° 0 mm 1 mps 763 mmHg 72%
    07:00 +2°C° 0 mm 1 mps 762 mmHg 70%
    08:00 +4°C° 0 mm 1 mps 762 mmHg 67%
    09:00 +6°C° 0 mm 1 mps 762 mmHg 64%
    10:00 +7°C° 0 mm 1 mps 761 mmHg 60%
    11:00 +8°C° 0 mm 1 mps 760 mmHg 57%
    12:00 +10°C° 0 mm 1 mps 760 mmHg 53%
    13:00 +10°C° 0 mm 1 mps 759 mmHg 52%
    14:00 +10°C° 0 mm 1 mps 759 mmHg 51%
    15:00 +11°C° 0 mm 1 mps 758 mmHg 50%
    16:00 +8°C° 0 mm 1 mps 758 mmHg 56%
    17:00 +5°C° 0 mm 0 mps 758 mmHg 63%
    18:00 +3°C° 0 mm 0 mps 758 mmHg 69%
    19:00 +3°C° 0 mm 0 mps 758 mmHg 69%
    20:00 +4°C° 0 mm 1 mps 758 mmHg 70%
    21:00 +3°C° 0 mm 1 mps 758 mmHg 71%
    22:00 +3°C° 0 mm 1 mps 757 mmHg 71%
    23:00 +3°C° 0 mm 1 mps 757 mmHg 72%

    Tomorrow, 21 February, Tuesday

    Time Temperature Precipitation Wind Pressure Humidity
    00:00 +3°C° 0 mm 1 mps 757 mmHg 73%
    01:00 +3°C° 0 mm 1 mps 757 mmHg 73%
    02:00 +2°C° 0 mm 1 mps 756 mmHg 73%
    03:00 +1°C° 0 mm 0 mps 756 mmHg 73%
    04:00 +2°C° 0 mm 1 mps 756 mmHg 73%
    05:00 +2°C° 0 mm 1 mps 756 mmHg 72%
    06:00 +2°C° 0 mm 1 mps 755 mmHg 71%
    07:00 +4°C° 0 mm 1 mps 755 mmHg 66%
    08:00 +6°C° 0 mm 1 mps 755 mmHg 61%
    09:00 +8°C° 0 mm 1 mps 755 mmHg 56%
    10:00 +8°C° 0 mm 2 mps 754 mmHg 52%
    11:00 +9°C° 0 mm 2 mps 753 mmHg 49%
    12:00 +12°C° 0 mm 2 mps 753 mmHg 45%
    13:00 +12°C° 0 mm 2 mps 752 mmHg 45%
    14:00 +11°C° 0 mm 3 mps 752 mmHg 46%
    15:00 +12°C° 0 mm 3 mps 751 mmHg 46%
    16:00 +10°C° 0 mm 2 mps 751 mmHg 51%
    17:00 +8°C° 0 mm 2 mps 751 mmHg 56%
    18:00 +6°C° 0 mm 2 mps 752 mmHg 62%
    19:00 +6°C° 0 mm 2 mps 752 mmHg 62%
    20:00 +5°C° 0 mm 2 mps 752 mmHg 63%
    21:00 +5°C° 0 mm 2 mps 752 mmHg 64%
    22:00 +5°C° 0 mm 2 mps 752 mmHg 62%
    23:00 +5°C° 0 mm 2 mps 752 mmHg 61%

    Day after tomorrow, 22 February, Wednesday

    Time Temperature Precipitation Wind Pressure Humidity
    00:00 +4°C° 0 mm 2 mps 752 mmHg 60%
    01:00 +3°C° 0 mm 3 mps 752 mmHg 58%
    02:00 +3°C° 0 mm 3 mps 752 mmHg 57%
    03:00 +3°C° 0 mm 3 mps 751 mmHg 55%
    04:00 +3°C° 0 mm 3 mps 752 mmHg 55%
    05:00 +1°C° 0 mm 4 mps 752 mmHg 55%
    06:00 +1°C° 0 mm 4 mps 752 mmHg 55%
    07:00 +4°C° 0 mm 4 mps 752 mmHg 52%
    08:00 +6°C° 0 mm 4 mps 752 mmHg 49%
    09:00 +7°C° 0 mm 5 mps 752 mmHg 45%
    10:00 +9°C° 0 mm 5 mps 752 mmHg 42%
    11:00 +10°C° 0 mm 5 mps 752 mmHg 39%
    12:00 +11°C° 0 mm 6 mps 751 mmHg 36%
    13:00 +12°C° 0 mm 5 mps 751 mmHg 38%
    14:00 +12°C° 0 mm 5 mps 751 mmHg 39%
    15:00 +12°C° 0 mm 5 mps 751 mmHg 40%
    16:00 +10°C° 0 mm 4 mps 751 mmHg 45%
    17:00 +8°C° 0 mm 4 mps 752 mmHg 49%
    18:00 +7°C° 0 mm 3 mps 752 mmHg 54%
    19:00 +7°C° 0 mm 3 mps 752 mmHg 54%
    20:00 +5°C° 0 mm 3 mps 752 mmHg 54%
    21:00 +5°C° 0 mm 3 mps 753 mmHg 54%
    22:00 +5°C° 0 mm 3 mps 752 mmHg 54%
    23:00 +5°C° 0 mm 3 mps 752 mmHg 54%

    23 February, Thursday

    Time Temperature Precipitation Wind Pressure Humidity
    00:00 +4°C° 0 mm 3 mps 752 mmHg 55%
    01:00 +4°C° 0 mm 3 mps 752 mmHg 55%
    02:00 +4°C° 0 mm 4 mps 752 mmHg 55%
    03:00 +4°C° 0 mm 4 mps 752 mmHg 55%
    04:00 +3°C° 0 mm 5 mps 752 mmHg 56%
    05:00 +3°C° 0 mm 5 mps 752 mmHg 57%
    06:00 +3°C° 0 mm 6 mps 753 mmHg 58%
    07:00 +5°C° 0 mm 6 mps 753 mmHg 54%
    08:00 +7°C° 0 mm 6 mps 754 mmHg 51%
    09:00 +8°C° 0 mm 7 mps 754 mmHg 48%
    10:00 +9°C° 0 mm 7 mps 754 mmHg 46%
    11:00 +10°C° 0 mm 7 mps 754 mmHg 43%
    12:00 +12°C° 0 mm 7 mps 755 mmHg 41%
    13:00 +13°C° 0 mm 6 mps 754 mmHg 40%
    14:00 +13°C° 0 mm 6 mps 754 mmHg 39%
    15:00 +14°C° 0 mm 5 mps 754 mmHg 38%
    16:00 +12°C° 0 mm 4 mps 755 mmHg 44%
    17:00 +10°C° 0 mm 3 mps 755 mmHg 50%
    18:00 +8°C° 0 mm 2 mps 756 mmHg 55%
    19:00 +8°C° 0 mm 2 mps 756 mmHg 55%
    20:00 +7°C° 0 mm 2 mps 756 mmHg 54%
    21:00 +7°C° 0 mm 3 mps 757 mmHg 54%
    22:00 +5°C° 0 mm 3 mps 757 mmHg 53%
    23:00 +5°C° 0 mm 3 mps 757 mmHg 52%

    24 February, Friday

    Time Temperature Precipitation Wind Pressure Humidity
    00:00 +5°C° 0 mm 4 mps 757 mmHg 51%
    01:00 +5°C° 0 mm 4 mps 756 mmHg 51%
    02:00 +5°C° 0 mm 4 mps 756 mmHg 52%
    03:00 +5°C° 0 mm 4 mps 756 mmHg 52%
    04:00 +5°C° 0 mm 4 mps 756 mmHg 53%
    05:00 +5°C° 0 mm 5 mps 756 mmHg 53%
    06:00 +5°C° 0 mm 5 mps 756 mmHg 54%
    07:00 +6°C° 0 mm 5 mps 757 mmHg 51%
    08:00 +8°C° 0 mm 4 mps 757 mmHg 48%
    09:00 +10°C° 0 mm 4 mps 757 mmHg 45%
    10:00 +12°C° 0 mm 4 mps 757 mmHg 43%
    11:00 +13°C° 0 mm 4 mps 756 mmHg 40%
    12:00 +14°C° 0 mm 4 mps 756 mmHg 38%
    13:00 +15°C° 0 mm 4 mps 756 mmHg 38%
    14:00 +15°C° 0 mm 4 mps 756 mmHg 39%
    15:00 +15°C° 0 mm 4 mps 756 mmHg 39%
    16:00 +14°C° 0 mm 3 mps 756 mmHg 45%
    17:00 +13°C° 0 mm 2 mps 757 mmHg 51%
    18:00 +11°C° 0 mm 1 mps 757 mmHg 57%
    19:00 +10°C° 0 mm 1 mps 757 mmHg 58%
    20:00 +10°C° 0 mm 1 mps 758 mmHg 58%
    21:00 +9°C° 0 mm 1 mps 758 mmHg 59%
    22:00 +9°C° 0 mm 1 mps 758 mmHg 60%
    23:00 +9°C° 0 mm 1 mps 758 mmHg 60%

    25 February, Saturday

    Time Temperature Precipitation Wind Pressure Humidity
    00:00 +8°C° 0 mm 1 mps 757 mmHg 61%
    01:00 +7°C° 0 mm 2 mps 757 mmHg 59%
    02:00 +7°C° 0 mm 2 mps 757 mmHg 58%
    03:00 +7°C° 0 mm 2 mps 757 mmHg 57%
    04:00 +7°C° 0 mm 3 mps 757 mmHg 56%
    05:00 +7°C° 0 mm 3 mps 756 mmHg 56%
    06:00 +5°C° 0 mm 3 mps 756 mmHg 56%
    07:00 +8°C° 0 mm 3 mps 756 mmHg 52%
    08:00 +10°C° 0 mm 3 mps 756 mmHg 47%
    09:00 +12°C° 0 mm 3 mps 755 mmHg 43%
    10:00 +13°C° 0 mm 3 mps 755 mmHg 41%
    11:00 +16°C° 0 mm 3 mps 754 mmHg 38%
    12:00 +17°C° 0 mm 3 mps 753 mmHg 36%
    13:00 +17°C° 0 mm 3 mps 752 mmHg 35%
    14:00 +18°C° 0 mm 3 mps 752 mmHg 35%
    15:00 +18°C° 0 mm 3 mps 751 mmHg 34%
    16:00 +16°C° 0 mm 3 mps 751 mmHg 39%
    17:00 +13°C° 0 mm 3 mps 752 mmHg 44%
    18:00 +12°C° 0 mm 2 mps 752 mmHg 49%
    19:00 +12°C° 0 mm 2 mps 752 mmHg 48%
    20:00 +11°C° 0 mm 3 mps 751 mmHg 48%
    21:00 +10°C° 0 mm 3 mps 751 mmHg 48%
    22:00 +10°C° 0 mm 3 mps 751 mmHg 48%
    23:00 +9°C° 0 mm 3 mps 751 mmHg 48%
    Show more